Location: Newark
(44.2003°N, 3.2583°E)
Time: 18:33:42
(UTC+00:00)

Courier 1B Rocket - Pass Details

Date: 23 October 2019
Orbit: 920 x 1202 km, 28.2° (Epoch: 16 November)

Event Time Altitude Azimuth Distance (km) Brightness Sun altitude
Exits shadow 03:58:00 17° 192° (SSW) 2,116 6.6 -24.5°
Maximum altitude 03:58:54 18° 181° (S) 2,088 6.6 -24.4°
Drops below altitude 10° 04:02:57 10° 140° (SE) 2,617 7.6 -23.6°
Sets 04:06:26 0° 122° (ESE) 3,586 8.7 -23.0°
